RH
56 77 95 100 100 100 97 94 91 96 96 100 95 87 80 84 78 70 77 80 76 73 72 75 69 57 58 62 52 43 40 34 28 23 21 17 16 15 13 13 14 15 18 24
60 71 95 100 100 100 100 100 93 87 77 88 85 83 91 93 76 80 80 83 78 81 78 66 55 73 53 48 43 40 28 25 18 14 9 10 9 9 8 8 8 10 14 22
76 82 84 89 98 97 90 83 80 81 92 94 99 92 87 79 80 78 89 88 94 97 81 58 50 56 54 50 62 51 46 30 18 11 11 8 8 8 9 9 10 11 29 37
88 88 90 88 88 92 91 81 84 88 89 93 89 96 97 89 85 92 94 82 65 54 47 52 54 78 56 65 80 69 56 56 50 36 24 16 18 13 16 22 38 58 59 61
69 78 87 94 97 98 95 93 94 95 92 95 98 100 100 98 91 77 56 50 51 54 52 59 69 73 65 82 70 81 63 64 61 67 52 42 36 31 46 61 66 75 98 100
77 76 76 77 79 84 94 100 98 100 100 97 95 96 95 74 62 55 52 53 60 60 59 64 76 72 71 86 68 84 77 69 68 72 72 70 70 59 55 60 59 58 58 64
97 93 88 94 98 100 100 95 100 98 97 98 94 84 68 59 60 60 63 62 65 66 67 70 76 75 74 63 62 66 83 82 78 81 78 81 77 73 79 81 80 80 79 78
100 100 100 97 95 98 96 97 92 92 90 92 86 70 59 58 63 65 64 69 73 84 81 69 68 78 71 67 64 68 72 76 82 81 86 87 81 78 85 91 93 97 97 98
100 100 98 90 84 86 98 99 100 100 97 87 81 69 64 64 65 76 85 80 80 81 80 80 74 69 84 82 70 66 84 81 88 95 92 91 92 95 96 95 96 98 97 94
80 79 76 83 91 97 97 100 100 100 97 86 89 86 82 82 86 88 91 99 88 88 82 82 78 86 87 84 69 66 70 80 84 82 79 86 91 91 95 99 100 100 99 91
63 69 83 88 91 94 96 97 99 100 85 84 89 93 89 88 84 78 76 79 87 99 80 90 88 84 85 80 70 71 71 73 71 78 86 91 89 88 92 98 98 93 84 78
68 77 75 88 92 92 95 100 97 90 99 86 90 98 89 71 64 68 67 76 86 94 75 76 86 88 84 81 82 83 82 83 90 98 100 100 97 98 97 92 80 78 74 74
78 74 82 92 84 75 88 98 100 99 100 92 94 90 69 66 56 60 66 80 86 86 78 76 84 90 87 88 86 81 83 96 100 100 100 98 95 93 92 88 77 80 82 78
80 80 93 94 89 78 74 74 89 97 100 100 100 87 64 57 60 65 83 86 87 90 90 90 91 93 90 87 91 92 100 100 100 100 94 94 90 89 87 76 78 81 78 79
90 85 94 97 93 90 84 87 87 100 100 100 99 89 73 64 76 86 96 96 95 95 93 92 96 97 97 96 94 93 91 93 93 92 97 96 90 84 81 78 80 80 83 81
100 95 96 99 96 100 100 91 86 95 100 100 98 97 86 89 97 100 95 97 98 95 93 99 97 97 100 100 99 95 98 100 99 99 95 89 83 82 81 88 87 81 85 80
100 100 99 100 96 100 100 100 84 87 92 92 95 99 100 100 100 99 97 93 91 92 90 93 94 92 93 97 97 95 93 96 94 86 82 86 88 89 92 90 82 84 86 79
100 100 100 100 100 100 100 100 98 85 84 85 94 85 86 100 100 100 100 99 98 93 88 94 97 99 96 90 91 94 97 92 92 96 95 92 85 84 88 88 84 84 80 79
91 100 100 100 100 100 100 100 100 94 90 98 96 90 79 93 100 100 100 100 100 98 98 94 96 97 94 94 98 99 97 100 99 92 91 86 84 86 88 84 84 83 78 79
98 92 100 100 100 100 95 98 100 100 95 99 95 98 95 81 88 100 100 100 99 98 100 100 100 100 99 100 100 100 100 94 92 91 86 84 82 80 82 86 82 78 77 83
99 85 91 100 100 100 100 96 99 100 100 98 97 100 100 95 94 96 97 98 99 98 99 98 100 99 95 96 100 91 88 90 92 91 88 85 83 80 82 82 79 77 81 72
100 98 85 96 100 100 100 100 100 100 100 98 97 100 99 100 100 93 90 88 96 98 94 88 88 91 96 98 90 88 94 95 92 91 87 88 89 85 81 77 80 82 74 81
91 100 98 99 100 100 100 100 100 100 100 100 100 100 100 100 100 100 100 100 95 93 93 90 91 89 90 93 97 93 95 96 96 93 92 100 95 83 80 85 84 79 82 86
80 96 100 100 100 100 100 100 100 100 100 99 100 100 100 100 100 100 100 100 100 100 99 98 94 95 96 95 95 96 99 96 91 93 100 97 91 84 85 87 88 85 87 81
49 83 99 100 100 100 100 100 100 99 95 93 92 91 88 86 98 100 97 95 97 99 100 100 100 100 100 100 99 100 93 91 91 98 100 96 89 92 93 83 84 86 74 62
32 44 72 94 96 100 99 100 100 100 100 100 98 99 100 100 100 100 100 100 100 98 100 100 100 100 100 100 100 96 89 90 94 97 94 93 93 91 83 82 75 56 58 81
34 37 39 48 74 96 97 95 98 99 99 100 97 95 95 94 95 100 100 100 100 100 98 100 100 100 100 100 98 93 89 89 97 96 94 90 83 83 71 66 64 64 83 94
Wind_Speed
35 40 43 43 43 45 47 47 48 49 55 58 60 58 56 54 56 53 53 54 54 55 56 59 62 59 58 60 59 58 60 67 81 89 86 89 87 87 86 86 84 82 79 77
32 37 44 49 51 50 48 46 44 47 46 52 51 51 50 51 48 48 49 49 49 50 50 49 45 45 49 45 43 43 44 48 48 50 52 49 49 53 52 51 51 51 51 56
28 34 39 44 48 49 50 48 47 45 44 47 50 45 44 44 43 40 42 41 40 40 43 40 37 36 33 32 32 38 40 40 32 26 21 23 26 29 31 34 34 30 30 37
25 28 33 35 36 39 40 39 36 36 35 35 34 34 34 32 33 32 32 32 33 36 35 32 28 26 26 27 27 33 35 38 45 41 28 16 14 14 10 9 6 8 14 16
20 22 26 29 31 33 32 30 29 29 29 28 27 26 25 25 24 24 25 28 28 31 30 27 24 25 25 27 21 26 30 29 34 36 39 32 26 21 12 14 12 9 7 4
15 16 18 19 20 20 21 22 22 21 21 22 20 19 20 19 19 21 24 26 31 31 29 25 26 25 26 24 18 17 25 26 26 29 32 30 31 30 29 25 20 16 9 3
14 15 16 17 18 19 19 18 17 19 19 19 19 18 17 18 19 21 23 26 28 26 26 24 26 25 25 20 19 19 19 22 21 21 23 23 23 23 22 23 23 21 20 18
14 14 16 18 18 18 18 19 19 19 18 18 18 17 15 15 15 18 18 19 19 22 23 22 23 26 28 27 23 21 21 19 18 17 17 16 17 19 20 22 21 20 19 20
17 18 19 20 20 19 20 20 19 17 17 17 17 15 13 15 13 14 14 16 16 17 17 19 20 21 18 20 22 22 20 18 17 18 18 21 23 22 22 23 23 24 24 25
22 23 23 23 21 19 18 18 19 20 21 20 18 16 16 15 15 16 17 17 17 18 17 16 15 14 13 13 12 11 9 11 13 14 16 18 20 20 18 20 22 25 28 31
27 28 25 22 19 17 18 19 19 21 22 21 20 21 20 22 23 23 22 21 20 19 18 16 16 15 14 14 13 13 14 16 16 18 20 21 21 20 20 20 25 26 28 33
28 29 25 21 17 17 16 19 20 20 25 22 21 22 26 26 27 27 24 20 22 21 19 18 17 18 19 17 17 18 19 20 22 23 23 23 24 24 25 26 30 33 34 37
29 26 23 21 20 17 16 19 21 22 23 24 23 29 24 24 21 22 21 22 22 21 19 20 20 21 21 21 22 22 22 22 24 25 25 26 27 29 30 32 34 36 40 42
29 27 25 23 21 19 16 15 18 23 25 29 31 29 22 20 20 20 19 20 21 20 21 21 21 22 23 23 23 23 23 24 25 26 28 29 31 33 33 35 37 40 42 45
30 28 25 24 22 21 20 16 17 24 29 31 31 27 24 19 19 19 18 19 20 21 21 22 22 24 24 25 26 27 27 27 26 28 30 33 35 35 35 37 40 43 46 50
33 30 27 27 25 24 22 23 20 21 25 28 27 23 20 18 18 19 19 20 21 23 23 24 26 26 25 26 26 27 27 27 30 32 35 36 37 38 39 42 45 47 51 55
36 33 30 29 27 25 24 23 19 17 22 24 24 22 21 19 19 20 21 22 22 22 23 25 26 27 26 25 25 26 28 31 33 34 37 38 40 41 43 46 48 51 55 58
42 38 35 33 31 29 27 26 24 20 19 21 23 24 24 22 22 21 20 22 23 23 24 25 26 27 28 27 28 30 33 35 36 37 38 40 42 44 47 50 52 56 58 61
47 42 39 37 35 34 31 30 26 24 19 22 25 27 26 24 23 22 23 23 25 25 26 27 28 29 29 29 31 34 36 36 37 39 41 44 46 48 51 53 56 58 61 64
52 48 45 41 39 38 35 33 31 28 26 24 22 25 28 27 27 24 24 25 28 29 28 29 30 31 33 34 34 35 36 38 40 41 44 46 49 51 53 56 59 60 63 67
52 52 50 46 43 42 38 36 35 34 31 28 27 24 25 28 30 30 29 29 30 31 33 35 36 36 35 35 37 40 40 41 41 44 47 50 53 56 57 58 60 62 66 69
48 47 48 48 47 45 42 39 38 38 36 34 31 30 29 28 32 34 35 36 35 35 36 37 40 41 40 41 42 41 41 42 45 48 50 53 57 58 59 61 63 66 70 73
52 48 47 48 50 49 47 44 43 42 41 39 38 37 35 36 34 34 37 42 43 43 42 40 40 41 43 43 44 45 46 48 50 52 54 58 61 62 63 64 68 72 74 76
54 52 49 51 52 52 51 49 47 47 47 46 45 44 42 41 40 38 40 42 45 47 47 47 46 45 45 47 48 49 50 52 54 55 58 62 64 66 67 70 74 76 78 73
51 56 55 53 52 53 54 53 53 52 52 51 50 49 48 47 45 46 47 47 49 48 50 52 53 53 53 53 52 52 52 53 55 58 61 64 66 68 72 74 75 74 69 58
44 51 56 57 57 57 56 55 54 54 54 54 54 53 53 50 51 54 55 56 56 53 53 54 55 56 57 58 58 57 57 56 58 60 63 65 68 72 73 74 72 63 55 54
39 43 47 54 58 60 60 59 59 58 58 59 59 59 58 59 59 60 60 59 58 58 56 57 57 58 59 60 59 59 59 60 62 64 66 69 70 73 72 63 60 56 55 59
Wind_Direction
204 205 208 209 214 220 226 228 231 231 233 234 241 246 250 251 253 256 257 260 263 266 268 269 269 272 274 278 283 282 278 277 277 280 278 277 276 272 272 271 271 269 265 261
204 206 210 214 216 221 228 230 231 233 232 234 240 245 246 254 253 256 260 267 268 267 268 268 272 274 278 281 288 296 297 298 286 279 273 268 266 266 267 268 264 261 258 252
202 208 212 216 221 226 230 232 233 239 240 241 249 250 253 255 256 258 259 262 262 262 263 270 274 271 279 294 310 322 323 330 325 323 306 298 286 280 275 267 262 265 257 251
201 204 208 214 219 224 229 233 236 238 237 237 241 245 248 250 251 251 255 255 258 264 270 271 268 276 288 304 318 328 338 358 9 11 0 344 336 306 275 265 256 250 259 259
196 200 204 210 216 221 226 229 228 225 226 229 229 229 232 240 242 246 255 258 264 268 269 270 269 277 289 304 309 323 339 360 14 18 23 26 28 28 64 96 90 94 111 159
169 174 177 182 186 186 184 189 191 195 204 213 222 224 227 234 238 252 256 261 265 269 270 272 266 276 290 297 305 307 333 348 4 18 29 30 35 40 39 51 50 45 46 56
171 172 171 174 177 181 188 196 199 205 204 205 215 225 232 239 251 261 266 268 272 275 272 263 268 279 286 282 293 307 319 331 347 4 13 20 24 33 34 31 26 19 13 6
199 201 201 200 198 198 194 195 194 199 208 218 220 224 237 250 261 262 268 270 273 280 275 269 272 278 280 283 285 296 305 320 330 346 2 9 14 16 12 6 1 353 343 332
214 212 207 196 185 185 189 200 212 222 221 220 221 229 254 256 260 267 274 275 280 278 280 276 275 271 272 276 277 280 290 302 317 325 336 350 352 354 353 351 347 339 330 322
207 196 185 181 184 192 210 225 223 221 223 219 228 240 258 265 274 278 282 286 283 275 269 269 265 270 281 296 291 284 289 300 307 316 326 334 331 332 334 331 327 325 324 320
188 181 183 187 196 214 227 228 227 226 227 230 234 241 258 265 270 274 276 281 285 278 264 261 266 270 277 281 286 291 293 295 303 314 318 318 314 313 312 312 317 317 315 317
186 187 189 194 207 218 223 229 234 235 236 245 249 258 261 262 262 261 270 271 274 270 265 263 268 273 275 278 280 288 295 302 307 308 306 305 306 307 306 306 310 308 311 317
195 198 198 205 212 211 212 227 238 243 244 251 261 269 260 262 261 260 261 264 260 267 268 265 269 273 274 275 281 289 297 299 295 294 294 300 303 303 301 301 304 310 316 317
205 204 207 215 218 221 230 236 239 247 252 259 268 271 262 263 260 258 261 260 259 266 267 266 268 271 274 280 285 288 289 287 290 292 296 300 303 302 301 304 308 311 313 318
211 213 212 222 228 233 238 251 257 249 252 256 259 262 269 266 260 258 259 259 262 268 273 278 283 285 285 284 286 286 288 291 293 297 302 304 303 302 303 307 310 313 315 317
214 219 219 224 231 237 246 252 262 254 251 247 248 257 262 267 264 262 263 262 264 267 269 273 275 276 280 285 292 292 292 294 295 298 300 302 305 306 305 307 309 311 312 314
219 222 226 229 236 242 246 251 261 261 253 249 248 252 254 256 264 270 271 274 271 269 270 271 272 274 277 282 283 286 289 293 295 299 303 304 305 305 307 309 309 311 314 316
221 223 228 231 236 243 244 246 252 263 262 250 253 254 257 256 259 265 267 269 272 275 277 281 282 281 278 280 285 289 291 296 300 301 301 302 303 305 306 307 311 313 315 317
226 226 229 232 237 243 246 243 248 252 258 255 259 255 256 256 253 261 265 268 269 271 275 274 274 277 282 286 289 291 295 296 295 296 299 301 304 305 306 309 312 313 315 317
225 226 229 233 236 241 246 244 243 250 252 262 274 265 257 265 264 256 261 269 270 270 269 270 273 277 282 284 286 291 292 293 296 298 301 304 306 308 310 311 312 314 316 319
227 228 229 233 236 238 243 244 243 246 250 256 264 274 268 261 261 259 262 265 271 274 273 273 272 272 274 280 286 288 293 295 296 299 303 306 308 310 311 311 313 315 318 319
228 228 228 231 233 235 241 244 246 247 250 255 260 264 270 272 267 264 267 271 275 280 284 283 279 278 280 281 284 287 292 295 298 301 304 306 309 309 310 313 315 317 319 321
229 230 226 227 231 234 239 243 247 249 251 253 255 259 264 267 270 271 272 271 273 276 278 281 285 283 281 284 288 290 292 295 298 301 304 306 306 309 313 317 318 319 321 321
228 230 228 229 230 234 239 243 246 248 250 252 255 257 260 264 264 269 273 277 275 275 276 278 283 286 287 288 290 292 293 294 297 302 304 304 306 311 315 317 320 321 321 318
228 230 231 231 234 237 240 243 244 246 248 250 253 258 262 265 267 270 275 277 277 277 278 277 278 279 283 287 289 292 295 298 301 301 302 304 308 312 315 317 320 321 319 317
230 231 234 236 237 238 239 242 245 248 252 254 256 259 260 262 265 270 274 276 276 277 276 276 276 278 280 283 286 290 294 297 299 299 302 305 308 312 315 317 321 318 318 319
230 232 235 238 240 242 245 246 248 250 252 254 257 260 262 264 266 270 272 272 272 273 274 276 278 280 281 283 286 288 293 297 298 302 303 305 309 312 315 319 319 318 318 320